Flag for Netherlands Weather past 2 weeks in Leiden, Netherlands

Now
54 °F

Drizzle. Broken clouds.


Feels Like: 50 °F
Forecast: 53 / 59 °F
Wind: 12 mph from South

Location: Rotterdam Zestienhoven Airport

Current Time: Oct 24, 2014 at 12:01:05 PM

Latest Report: Oct 24, 2014 at 11:25 AM


Visibility: 2 mi

Pressure: 30.07 "Hg

Humidity: 94%

Dew point: 52 °F

Location of LeidenLocation

Historic Weather in Leiden — Graph

°F

Leiden temperature yesterday

Maximum temperature yesterday: 59 °F (at 12:25 PM)
Minimum temperature yesterday: 50 °F (at 2:25 AM)
Average temperature yesterday: 55 °F

Past Weeks' High & Low Weather Summary

 TemperatureHumidityPressure
High73 °F (Oct 18, 3:55 PM)100% (Oct 11, 2:55 AM)30.18 "Hg (Oct 11, 2:55 AM)
Low46 °F (Oct 11, 4:25 AM)56% (Oct 9, 4:55 PM)29.45 "Hg (Oct 21, 1:25 PM)
Average58 °F84%29.84 "Hg
* Reported Oct 9 10:25 AM — Oct 24 10:55 AM, Leiden, Weather by CustomWeather, © 2014

Note: Actual official high and low records may vary slightly from our data, if they occured in-between our weather recording intervals... More about our weather records

Advertising

Leiden weather history for previous 24 hours

 ConditionsComfort  
Time TempWeatherWind HumidityBarometerVisibility
10:55 AM
Oct 24
54 °FLight rain. Broken clouds.14 mph94%30.07 "Hg2 mi
10:25 AM54 °FDrizzle. Broken clouds.14 mph94%30.07 "Hg5 mi
9:55 AM54 °FDrizzle. Mostly cloudy.13 mph88%30.07 "HgN/A
9:25 AM54 °FSprinkles. More clouds than sun.13 mph88%30.07 "Hg5 mi
8:55 AM54 °FLight rain. Overcast.14 mph88%30.07 "HgN/A
8:25 AM54 °FMostly cloudy.12 mph82%30.04 "HgN/A
7:55 AM54 °FMostly cloudy.15 mph82%30.04 "Hg4 mi
7:25 AM54 °FMostly cloudy.13 mph82%30.07 "HgN/A
6:55 AM54 °FMostly cloudy.13 mph82%30.07 "HgN/A
6:25 AM54 °FMostly cloudy.14 mph77%30.07 "HgN/A
5:55 AM54 °FOvercast.14 mph77%30.07 "HgN/A
5:25 AM54 °FMostly cloudy.12 mph77%30.07 "HgN/A
4:55 AM54 °FPartly cloudy.13 mph77%30.07 "HgN/A
4:25 AM54 °FPartly cloudy.14 mph77%30.07 "HgN/A
3:55 AM54 °FLight rain. Passing clouds.14 mph77%30.09 "Hg6 mi
3:25 AM54 °FMostly cloudy.14 mph77%30.09 "HgN/A
2:55 AM54 °FOvercast.16 mph77%30.09 "HgN/A
2:25 AM54 °FMostly cloudy.14 mph77%30.09 "HgN/A
1:55 AM54 °FOvercast.15 mph77%30.09 "HgN/A
1:25 AM54 °FMostly cloudy.15 mph82%30.09 "HgN/A
12:55 AM55 °FMostly cloudy.15 mph77%30.09 "HgN/A
12:25 AM55 °FMostly cloudy.15 mph77%30.09 "HgN/A
11:55 PM
Oct 23
55 °FOvercast.15 mph77%30.12 "HgN/A
11:25 PM55 °FMostly cloudy.14 mph77%30.12 "HgN/A
10:55 PM55 °FOvercast.18 mph77%30.12 "HgN/A
10:25 PM57 °FMostly cloudy.16 mph72%30.12 "HgN/A
9:55 PM55 °FMostly cloudy.16 mph77%30.12 "HgN/A
9:25 PM57 °FOvercast.15 mph77%30.12 "HgN/A
8:55 PM55 °FOvercast.16 mph82%30.12 "HgN/A
8:25 PM55 °FMostly cloudy.16 mph88%30.12 "HgN/A
7:55 PM57 °FPartly cloudy.15 mph82%30.12 "HgN/A
7:25 PM55 °FPartly sunny.13 mph88%30.12 "HgN/A
6:55 PM55 °FCloudy.13 mph88%30.12 "HgN/A
6:25 PM55 °FOvercast.14 mph88%30.12 "HgN/A
5:55 PM55 °FMostly cloudy.13 mph88%30.12 "HgN/A
5:25 PM57 °FCloudy.14 mph77%30.12 "HgN/A
4:55 PM57 °FMore clouds than sun.14 mph77%30.12 "HgN/A
4:25 PM57 °FMostly cloudy.14 mph77%30.12 "HgN/A
3:55 PM57 °FMore clouds than sun.15 mph77%30.12 "HgN/A
3:25 PM57 °FBroken clouds.13 mph77%30.15 "HgN/A
2:55 PM57 °FMostly cloudy.13 mph77%30.15 "HgN/A
2:25 PM57 °FCloudy.14 mph77%30.15 "HgN/A
1:55 PM57 °FBroken clouds.12 mph77%30.15 "HgN/A
1:25 PM57 °FPassing clouds.12 mph82%30.15 "HgN/A
12:55 PM57 °FBroken clouds.10 mph82%30.15 "HgN/A
12:25 PM59 °FClear.12 mph77%30.15 "HgN/A
Weather by CustomWeather, © 2014

See weather overviewHow to use our weather pages